Regional Weather Roundup
Issued by NWS

Home | Current Version | Previous Version | Text Only | Print | Product List | Glossary Off
Versions: 1 2 3 4 5 6 7 8 9 10 11 12 13 14 15 16 17 18 19 20 21 22 23 24 25 26 27 28 29 30 31 32 33 34 35 36 37 38 39 40 41 42 43 44 45 46 47 48 49 50

211
ASUS44 KJAN 200910
RWRMS

MISSISSIPPI HOURLY WEATHER ROUNDUP
NATIONAL WEATHER SERVICE JACKSON MS
400 AM CDT WED AUG 20 2014

NOTE: "FAIR: INDICATES FEW OR NO CLOUDS BELOW 12,000 FEET WITH NO
SIGNIFICANT WEATHER AND/OR OBSTRUCTIONS TO VISIBILITY.

MSZ001>002-007>008-010>013-018>021-025>028-034>036-201000-
NORTHWEST MISSISSIPPI

CITY           SKY/WX    TMP DP  RH WIND       PRES   REMARKS
CLARKSDALE     FAIR      75  75 100 CALM      29.94R
CLEVELAND      FAIR      73  73 100 S5        29.94R
GREENWOOD      CLEAR     74  72  93 SW3       29.96R
GREENVILLE       N/A    N/A N/A N/A MISG      29.94R
GRENADA        FAIR      75  72  88 CALM      29.95R
OLIVE BRANCH   CLEAR     75 N/A N/A CALM      29.93R
OXFORD         FAIR      73  68  83 SW3       29.95S
TUNICA           N/A     73  72  94 S5        29.93R FOG
$$

MSZ003>006-009-014>017-022>024-029>033-037>039-201000-
NORTHEAST MISSISSIPPI

CITY           SKY/WX    TMP DP  RH WIND       PRES   REMARKS
BELMONT        FAIR      75  74  96 S5        29.96R
COLUMBUS AFB   CLEAR     73  70  91 VRB1      29.96R
CORINTH        FAIR      73  72  94 CALM      29.92R
GOLDN TRIANGLE CLEAR     73  66  78 CALM      29.96S
STARKVILLE     FAIR      73  70  88 SW5       29.96S
TUPELO         CLEAR     76  73  91 CALM      29.94R
$$

MSZ040-058-201000-
CENTRAL MISSISSIPPI

CITY           SKY/WX    TMP DP  RH WIND       PRES   REMARKS
JACKSON INTL   CLEAR     74  72  93 CALM      29.97S
JACKSON HAWKNS CLEAR     76  72  87 CALM      29.98R
MERIDIAN KEY   CLEAR     70  68  93 CALM      29.98R
MERIDIAN NAS   PTCLDY    71  68  90 NW3       29.98R
RAYMOND        FAIR      73  68  83 CALM      29.97S HAZE
VICKSBURG      PTCLDY    74  72  93 CALM      29.97R
$$

MSZ059>079-201000-
SOUTH MISSISSIPPI

CITY           SKY/WX    TMP DP  RH WIND       PRES   REMARKS
BROOKHAVEN     FAIR      73  72  94 CALM      30.01R
COLUMBIA       FAIR      73  72  94 MISG      29.98R FOG
HATTIESBURG    PTCLDY    76  73  91 N3        29.99R
MCCOMB         PTCLDY    73  71  93 CALM      30.00R
NATCHEZ        MOCLDY    73  70  88 CALM      29.99R
PINE BELT      PTCLDY    73  70  88 CALM      30.00R
$$

MSZ080>082-201000-
COASTAL MISSISSIPPI

CITY           SKY/WX    TMP DP  RH WIND       PRES   REMARKS
BILOXI         MOCLDY    82  77  83 VRB2      29.98R HX  91
PASCAGOULA     PTCLDY    76  75  97 CALM      29.98R
GULFPORT       MOCLDY    79  76  90 CALM      29.98R
$$



USA.gov is the U.S. government's official web portal to all federal, state and local government web resources and services.